Location: Sungai Bunut
(2.6333°N, 113.7333°E)
Time: 19:44:54
(UTC+00:00)

Vanguard 3 - Pass Details

Date: 08 December 2023
Orbit: 508 x 3239 km, 33.4° (Epoch: 24 February)

Event Time Altitude Azimuth Distance (km) Brightness Sun altitude
Exits shadow 22:21:30 -1° 281° (W) 2,647 9.1 0.0°
Rises 22:21:39 0° 280° (W) 2,590 9.1 0.0°
Reaches altitude 10° 22:24:01 10° 264° (W) 1,741 8.4 0.6°
Maximum altitude 22:27:02 22° 210° (SSW) 1,260 8.1 1.3°
Drops below altitude 10° 22:30:44 10° 157° (SSE) 2,162 10.1 2.1°
Sets 22:34:06 0° 143° (SE) 3,434 11.6 2.9°
